AAL1254 KLAX-KMIA

Flight info

Callsign AAL1254
Flight time 4h 14m
Altitude 35000
Route DOTSS2 CNERY BLH SALOM EWM CRGER/N0442F370 IAH J86 LEV BACCA Y290 GAWKS FROGZ5
Aircraft B738/M-SDE2E3FGHIRWXY/LB1

Departure

Time 2026-04-26 05:20
Airport Los Angeles International Airport (KLAX)

Arrival

Time 2026-04-26 09:34
Airport Miami International Airport (KMIA)
Time Latitude Longitude Altitude Speed Heading
2026-04-26 04:52 33.94045 -118.40742 125 ft 0 kts 80°
2026-04-26 05:05 33.94043 -118.40758 122 ft 2 kts 82°
2026-04-26 05:05 33.94041 -118.40776 126 ft 2 kts 84°
2026-04-26 05:05 33.94039 -118.40795 121 ft 2 kts 90°
2026-04-26 05:05 33.94041 -118.40815 122 ft 2 kts 112°
2026-04-26 05:06 33.94052 -118.40827 123 ft 2 kts 172°
2026-04-26 05:06 33.94057 -118.40828 121 ft 0 kts 173°
2026-04-26 05:09 33.94056 -118.40828 121 ft 2 kts 172°
2026-04-26 05:09 33.93989 -118.40818 123 ft 16 kts 173°
2026-04-26 05:10 33.93885 -118.40777 124 ft 16 kts 139°
2026-04-26 05:10 33.93813 -118.40682 124 ft 15 kts 99°
2026-04-26 05:10 33.93824 -118.40529 125 ft 25 kts 83°
2026-04-26 05:10 33.93849 -118.40282 125 ft 31 kts 83°
2026-04-26 05:11 33.93875 -118.40029 125 ft 29 kts 83°
2026-04-26 05:11 33.93899 -118.39791 123 ft 28 kts 83°
2026-04-26 05:11 33.93922 -118.39565 125 ft 26 kts 83°
2026-04-26 05:11 33.93944 -118.39354 122 ft 25 kts 83°
2026-04-26 05:12 33.93964 -118.39156 124 ft 25 kts 83°
2026-04-26 05:12 33.93987 -118.38932 125 ft 27 kts 83°
2026-04-26 05:12 33.94009 -118.38717 125 ft 25 kts 83°
2026-04-26 05:12 33.94030 -118.38514 125 ft 23 kts 83°
2026-04-26 05:13 33.94050 -118.38324 122 ft 23 kts 83°
2026-04-26 05:13 33.94069 -118.38126 121 ft 24 kts 82°
2026-04-26 05:13 33.94080 -118.38029 125 ft 2 kts 83°
2026-04-26 05:13 33.94076 -118.38012 125 ft 0 kts 120°
2026-04-26 05:15 33.94070 -118.38004 125 ft 6 kts 138°
2026-04-26 05:15 33.93994 -118.37998 123 ft 7 kts 196°
2026-04-26 05:16 33.93982 -118.38052 122 ft 7 kts 263°
2026-04-26 05:16 33.93982 -118.38057 121 ft 0 kts 263°
2026-04-26 05:19 33.93980 -118.38071 123 ft 9 kts 263°
2026-04-26 05:19 33.93944 -118.38428 125 ft 78 kts 263°
2026-04-26 05:20 33.93851 -118.39330 124 ft 137 kts 262°
2026-04-26 05:20 33.93711 -118.40662 305 ft 173 kts 263°
2026-04-26 05:20 33.93547 -118.42085 1163 ft 172 kts 262°
2026-04-26 05:20 33.93398 -118.43564 1737 ft 190 kts 263°
2026-04-26 05:21 33.93227 -118.45249 1965 ft 215 kts 259°
2026-04-26 05:21 33.92531 -118.46899 2302 ft 231 kts 231°
2026-04-26 05:21 33.91490 -118.48426 2809 ft 245 kts 232°
2026-04-26 05:21 33.90382 -118.50061 3362 ft 256 kts 231°
2026-04-26 05:22 33.89226 -118.51709 4187 ft 258 kts 231°
2026-04-26 05:22 33.88065 -118.53356 4720 ft 257 kts 231°
2026-04-26 05:22 33.86868 -118.54961 4974 ft 263 kts 221°
2026-04-26 05:22 33.85231 -118.55917 4990 ft 269 kts 191°
2026-04-26 05:23 33.83360 -118.55840 5008 ft 271 kts 171°
2026-04-26 05:23 33.81513 -118.55337 4995 ft 273 kts 168°
2026-04-26 05:23 33.79661 -118.54801 4994 ft 274 kts 168°
2026-04-26 05:23 33.77806 -118.54276 4995 ft 274 kts 169°
2026-04-26 05:24 33.75944 -118.53764 4997 ft 275 kts 169°
2026-04-26 05:24 33.74081 -118.53257 4982 ft 275 kts 169°
2026-04-26 05:24 33.72222 -118.52757 4987 ft 274 kts 169°
2026-04-26 05:24 33.70445 -118.51927 5025 ft 280 kts 144°
2026-04-26 05:25 33.69162 -118.50163 5673 ft 284 kts 119°
2026-04-26 05:25 33.68414 -118.47963 6515 ft 285 kts 110°
2026-04-26 05:25 33.67771 -118.45696 7261 ft 288 kts 110°
2026-04-26 05:25 33.67124 -118.43398 7964 ft 292 kts 110°
2026-04-26 05:26 33.66454 -118.41073 8674 ft 296 kts 111°
2026-04-26 05:26 33.65774 -118.38757 9395 ft 300 kts 111°
2026-04-26 05:26 33.65060 -118.36344 10082 ft 305 kts 112°
2026-04-26 05:26 33.64425 -118.33890 10383 ft 325 kts 99°
2026-04-26 05:27 33.64322 -118.31087 10591 ft 346 kts 91°
2026-04-26 05:27 33.64348 -118.28139 11010 ft 358 kts 90°
2026-04-26 05:27 33.64389 -118.25123 11605 ft 364 kts 90°
2026-04-26 05:27 33.64423 -118.22060 12256 ft 369 kts 90°
2026-04-26 05:28 33.64445 -118.18959 12862 ft 374 kts 90°
2026-04-26 05:28 33.64457 -118.15817 13460 ft 380 kts 91°
2026-04-26 05:28 33.64462 -118.12625 14037 ft 385 kts 91°
2026-04-26 05:28 33.64463 -118.09393 14609 ft 388 kts 91°
2026-04-26 05:29 33.64461 -118.06129 15191 ft 392 kts 91°
2026-04-26 05:29 33.64458 -118.02870 15786 ft 396 kts 91°
2026-04-26 05:29 33.64453 -117.99542 16332 ft 401 kts 91°
2026-04-26 05:29 33.64448 -117.96170 16880 ft 405 kts 91°
2026-04-26 05:30 33.64442 -117.92774 17441 ft 410 kts 91°
2026-04-26 05:30 33.64435 -117.89335 17977 ft 414 kts 91°
2026-04-26 05:30 33.64428 -117.85858 18473 ft 419 kts 91°
2026-04-26 05:30 33.64419 -117.82349 18960 ft 422 kts 91°
2026-04-26 05:31 33.64294 -117.78821 19462 ft 423 kts 102°
2026-04-26 05:31 33.63578 -117.75399 19948 ft 423 kts 109°
2026-04-26 05:31 33.62713 -117.72005 20405 ft 427 kts 110°
2026-04-26 05:31 33.61819 -117.68607 20891 ft 429 kts 110°
2026-04-26 05:32 33.60923 -117.65175 21377 ft 433 kts 110°
2026-04-26 05:32 33.60035 -117.61704 21822 ft 436 kts 110°
2026-04-26 05:32 33.59154 -117.58201 22292 ft 439 kts 110°
2026-04-26 05:32 33.58278 -117.54678 22772 ft 442 kts 110°
2026-04-26 05:33 33.57398 -117.51128 23228 ft 445 kts 110°
2026-04-26 05:33 33.56514 -117.47553 23641 ft 449 kts 110°
2026-04-26 05:33 33.55619 -117.43944 23986 ft 452 kts 110°
2026-04-26 05:33 33.54728 -117.40357 24328 ft 456 kts 110°
2026-04-26 05:34 33.53818 -117.36696 24683 ft 458 kts 110°
2026-04-26 05:34 33.52904 -117.33026 25017 ft 461 kts 110°
2026-04-26 05:34 33.51982 -117.29335 25347 ft 464 kts 110°
2026-04-26 05:34 33.51053 -117.25620 25653 ft 467 kts 111°
2026-04-26 05:35 33.50325 -117.21794 25940 ft 476 kts 97°
2026-04-26 05:35 33.50200 -117.17810 26273 ft 480 kts 93°
2026-04-26 05:35 33.50188 -117.13797 26572 ft 483 kts 92°
2026-04-26 05:35 33.50200 -117.09755 26868 ft 487 kts 92°
2026-04-26 05:36 33.50200 -117.05683 27170 ft 490 kts 92°
2026-04-26 05:36 33.50179 -117.01588 27464 ft 492 kts 93°
2026-04-26 05:36 33.50137 -116.97475 27763 ft 495 kts 94°
2026-04-26 05:36 33.50082 -116.93390 28054 ft 497 kts 94°
2026-04-26 05:37 33.50018 -116.89233 28348 ft 500 kts 94°
2026-04-26 05:37 33.49950 -116.85050 28609 ft 503 kts 94°
2026-04-26 05:37 33.49881 -116.80846 28875 ft 506 kts 94°
2026-04-26 05:37 33.49812 -116.76621 29130 ft 508 kts 94°
2026-04-26 05:38 33.49742 -116.72379 29394 ft 511 kts 94°
2026-04-26 05:38 33.49671 -116.68111 29622 ft 513 kts 95°
2026-04-26 05:38 33.49599 -116.63825 29876 ft 515 kts 95°
2026-04-26 05:38 33.49524 -116.59510 30107 ft 518 kts 95°
2026-04-26 05:39 33.49448 -116.55195 30307 ft 519 kts 95°
2026-04-26 05:39 33.49370 -116.50922 30511 ft 521 kts 95°
2026-04-26 05:39 33.49291 -116.46513 30755 ft 522 kts 95°
2026-04-26 05:39 33.49212 -116.42216 31011 ft 522 kts 95°
2026-04-26 05:40 33.49140 -116.37859 31332 ft 522 kts 95°
2026-04-26 05:40 33.49078 -116.33512 31583 ft 522 kts 95°
2026-04-26 05:40 33.49015 -116.29159 31799 ft 523 kts 95°
2026-04-26 05:40 33.48951 -116.24798 32013 ft 524 kts 95°
2026-04-26 05:41 33.48885 -116.20421 32216 ft 526 kts 95°
2026-04-26 05:41 33.48816 -116.16033 32400 ft 527 kts 95°
2026-04-26 05:41 33.48745 -116.11644 32638 ft 527 kts 95°
2026-04-26 05:41 33.48671 -116.07245 32839 ft 528 kts 96°
2026-04-26 05:42 33.48807 -116.02832 33010 ft 535 kts 83°
2026-04-26 05:42 33.49794 -115.98518 33213 ft 538 kts 71°
2026-04-26 05:42 33.51088 -115.94308 33435 ft 539 kts 70°
2026-04-26 05:42 33.52412 -115.90101 33650 ft 539 kts 70°
2026-04-26 05:43 33.53719 -115.85882 33867 ft 540 kts 70°
2026-04-26 05:43 33.54979 -115.81697 34047 ft 540 kts 71°
2026-04-26 05:43 33.56226 -115.77451 34265 ft 540 kts 71°
2026-04-26 05:43 33.57459 -115.73198 34441 ft 540 kts 71°
2026-04-26 05:44 33.58690 -115.68936 34632 ft 539 kts 71°
2026-04-26 05:44 33.59919 -115.64689 34797 ft 539 kts 71°
2026-04-26 05:44 33.61895 -115.56032 34798 ft 535 kts 91°
2026-04-26 05:45 33.61716 -115.47204 34799 ft 528 kts 98°
2026-04-26 05:45 33.61356 -115.38398 34780 ft 528 kts 98°
2026-04-26 05:46 33.61079 -115.29602 34804 ft 527 kts 97°
2026-04-26 05:46 33.60851 -115.20807 34796 ft 527 kts 97°
2026-04-26 05:47 33.60628 -115.12076 34800 ft 527 kts 97°
2026-04-26 05:47 33.60388 -115.03285 34800 ft 527 kts 98°
2026-04-26 05:48 33.60139 -114.94490 34830 ft 529 kts 99°
2026-04-26 05:48 33.59883 -114.85667 34805 ft 529 kts 99°
2026-04-26 05:49 33.59379 -114.72485 34797 ft 523 kts 103°
2026-04-26 05:50 33.58609 -114.63835 34794 ft 520 kts 105°
2026-04-26 05:50 33.57765 -114.55228 34796 ft 519 kts 105°
2026-04-26 05:51 33.56959 -114.46627 34801 ft 519 kts 104°
2026-04-26 05:51 33.56175 -114.38014 34806 ft 519 kts 104°
2026-04-26 05:52 33.55393 -114.29409 34784 ft 520 kts 104°
2026-04-26 05:52 33.54732 -114.22247 34801 ft 520 kts 104°
2026-04-26 05:53 33.53797 -114.12207 34813 ft 521 kts 104°
2026-04-26 05:53 33.53120 -114.04959 34819 ft 523 kts 104°
2026-04-26 05:54 33.52307 -113.96282 34823 ft 524 kts 104°
2026-04-26 05:54 33.51453 -113.87643 34842 ft 522 kts 108°
2026-04-26 05:55 33.50096 -113.79136 34877 ft 518 kts 111°
2026-04-26 05:55 33.48547 -113.70707 34892 ft 519 kts 111°
2026-04-26 05:56 33.47011 -113.62247 34890 ft 520 kts 111°
2026-04-26 05:56 33.45513 -113.53762 34889 ft 520 kts 111°
2026-04-26 05:57 33.44040 -113.45333 34866 ft 521 kts 110°
2026-04-26 05:57 33.42551 -113.36835 34834 ft 521 kts 110°
2026-04-26 05:58 33.41054 -113.28342 34795 ft 521 kts 111°
2026-04-26 05:58 33.39550 -113.19859 34771 ft 520 kts 111°
2026-04-26 05:59 33.38043 -113.11397 34762 ft 519 kts 111°
2026-04-26 05:59 33.36542 -113.03002 34780 ft 519 kts 111°
2026-04-26 06:00 33.35026 -112.94561 34787 ft 519 kts 111°
2026-04-26 06:00 33.33504 -112.86124 34802 ft 518 kts 111°
2026-04-26 06:01 33.31978 -112.77693 34806 ft 518 kts 111°
2026-04-26 06:01 33.30442 -112.69251 34815 ft 521 kts 111°
2026-04-26 06:02 33.28899 -112.60797 34810 ft 520 kts 111°
2026-04-26 06:02 33.27351 -112.52344 34800 ft 520 kts 111°
2026-04-26 06:03 33.25798 -112.43902 34783 ft 520 kts 111°
2026-04-26 06:03 33.24241 -112.35470 34778 ft 520 kts 111°
2026-04-26 06:04 33.22677 -112.27043 34776 ft 520 kts 111°
2026-04-26 06:04 33.21108 -112.18616 34775 ft 520 kts 111°
2026-04-26 06:05 33.19535 -112.10196 34776 ft 518 kts 111°
2026-04-26 06:05 33.17965 -112.01823 34810 ft 516 kts 111°
2026-04-26 06:06 33.16402 -111.93530 34816 ft 515 kts 111°
2026-04-26 06:06 33.14822 -111.85186 34832 ft 515 kts 111°
2026-04-26 06:07 33.13239 -111.76854 34822 ft 515 kts 111°
2026-04-26 06:07 33.11649 -111.68517 34827 ft 515 kts 111°
2026-04-26 06:08 33.10051 -111.60171 34810 ft 516 kts 111°
2026-04-26 06:08 33.08444 -111.51810 34805 ft 518 kts 111°
2026-04-26 06:09 33.06830 -111.43439 34790 ft 519 kts 111°
2026-04-26 06:09 33.05216 -111.35104 34774 ft 520 kts 111°
2026-04-26 06:10 33.03581 -111.26687 34779 ft 521 kts 111°
2026-04-26 06:10 33.01939 -111.18271 34777 ft 522 kts 111°
2026-04-26 06:11 33.00286 -111.09827 34787 ft 523 kts 111°
2026-04-26 06:11 32.98628 -111.01391 34780 ft 523 kts 111°
2026-04-26 06:12 32.96964 -110.92951 34776 ft 522 kts 111°
2026-04-26 06:12 32.95299 -110.84543 34785 ft 522 kts 111°
2026-04-26 06:13 32.93629 -110.76137 34792 ft 521 kts 111°
2026-04-26 06:13 32.91955 -110.67749 34798 ft 520 kts 111°
2026-04-26 06:14 32.90283 -110.59407 34795 ft 521 kts 111°
2026-04-26 06:14 32.88601 -110.51037 34798 ft 520 kts 111°
2026-04-26 06:15 32.86913 -110.42666 34800 ft 519 kts 111°
2026-04-26 06:15 32.85227 -110.34338 34803 ft 517 kts 111°
2026-04-26 06:16 32.83534 -110.26014 34807 ft 518 kts 111°
2026-04-26 06:16 32.81842 -110.17729 34802 ft 519 kts 111°
2026-04-26 06:17 32.80136 -110.09391 34808 ft 519 kts 111°
2026-04-26 06:17 32.78426 -110.01066 34813 ft 519 kts 111°
2026-04-26 06:18 32.76709 -109.92741 34837 ft 518 kts 111°
2026-04-26 06:18 32.74991 -109.84435 34839 ft 516 kts 111°
2026-04-26 06:19 32.73282 -109.76193 34883 ft 513 kts 111°
2026-04-26 06:19 32.71562 -109.67951 34887 ft 515 kts 111°
2026-04-26 06:20 32.69836 -109.59717 34887 ft 517 kts 111°
2026-04-26 06:20 32.68090 -109.51402 34869 ft 520 kts 111°
2026-04-26 06:21 32.66331 -109.43051 34839 ft 523 kts 111°
2026-04-26 06:21 32.64553 -109.34642 34810 ft 524 kts 111°
2026-04-26 06:22 32.62774 -109.26250 34786 ft 525 kts 111°
2026-04-26 06:22 32.60999 -109.17903 34778 ft 525 kts 111°
2026-04-26 06:23 32.59213 -109.09531 34799 ft 523 kts 111°
2026-04-26 06:23 32.57423 -109.01182 34792 ft 521 kts 112°
2026-04-26 06:24 32.55634 -108.92865 34836 ft 520 kts 111°
2026-04-26 06:24 32.53843 -108.84571 34876 ft 519 kts 112°
2026-04-26 06:25 32.52050 -108.76294 34917 ft 518 kts 112°
2026-04-26 06:25 32.50255 -108.68034 34928 ft 517 kts 112°
2026-04-26 06:26 32.48465 -108.59830 34936 ft 517 kts 112°
2026-04-26 06:26 32.46657 -108.51570 34904 ft 518 kts 112°
2026-04-26 06:27 32.44847 -108.43326 34892 ft 517 kts 112°
2026-04-26 06:27 32.43031 -108.35083 34898 ft 518 kts 112°
2026-04-26 06:28 32.41207 -108.26835 34906 ft 519 kts 112°
2026-04-26 06:28 32.39374 -108.18569 34908 ft 519 kts 111°
2026-04-26 06:29 32.37533 -108.10302 34895 ft 522 kts 111°
2026-04-26 06:29 32.35674 -108.01990 34877 ft 529 kts 111°
2026-04-26 06:30 32.33777 -107.93530 34917 ft 534 kts 111°
2026-04-26 06:30 32.31864 -107.85010 34963 ft 537 kts 111°
2026-04-26 06:31 32.29939 -107.76466 34986 ft 538 kts 111°
2026-04-26 06:31 32.28005 -107.67914 34983 ft 538 kts 111°
2026-04-26 06:32 32.26068 -107.59380 34971 ft 536 kts 111°
2026-04-26 06:32 32.24147 -107.50943 34913 ft 533 kts 111°
2026-04-26 06:33 32.22218 -107.42503 34856 ft 531 kts 111°
2026-04-26 06:33 32.20289 -107.34097 34800 ft 530 kts 111°
2026-04-26 06:34 32.18360 -107.25717 34815 ft 528 kts 111°
2026-04-26 06:34 32.16428 -107.17354 34870 ft 528 kts 111°
2026-04-26 06:35 32.14489 -107.08988 34901 ft 528 kts 111°
2026-04-26 06:35 32.12543 -107.00619 34918 ft 529 kts 111°
2026-04-26 06:36 32.10591 -106.92246 34917 ft 530 kts 111°
2026-04-26 06:36 32.08640 -106.83908 34892 ft 531 kts 111°
2026-04-26 06:37 32.06665 -106.75494 34902 ft 532 kts 111°
2026-04-26 06:37 32.04679 -106.67063 34919 ft 534 kts 111°
2026-04-26 06:38 32.02685 -106.58622 34915 ft 535 kts 111°
2026-04-26 06:38 32.00803 -106.50683 34882 ft 536 kts 111°
2026-04-26 06:39 31.98803 -106.42271 34907 ft 537 kts 111°
2026-04-26 06:39 31.96782 -106.33799 34929 ft 537 kts 111°
2026-04-26 06:40 31.94812 -106.25296 34910 ft 540 kts 108°
2026-04-26 06:40 31.93373 -106.16599 34878 ft 542 kts 104°
2026-04-26 06:41 31.92104 -106.07846 34821 ft 542 kts 104°
2026-04-26 06:41 31.91021 -106.00586 34782 ft 542 kts 105°
2026-04-26 06:42 31.89659 -105.91861 34751 ft 541 kts 105°
2026-04-26 06:42 31.88266 -105.83151 34760 ft 541 kts 105°
2026-04-26 06:43 31.86867 -105.74457 34761 ft 540 kts 105°
2026-04-26 06:43 31.85479 -105.65840 34765 ft 539 kts 105°
2026-04-26 06:44 31.84080 -105.57180 34765 ft 539 kts 105°
2026-04-26 06:44 31.82676 -105.48525 34760 ft 538 kts 105°
2026-04-26 06:45 31.81267 -105.39881 34766 ft 538 kts 105°
2026-04-26 06:45 31.79851 -105.31230 34763 ft 538 kts 105°
2026-04-26 06:46 31.78431 -105.22595 34753 ft 538 kts 105°
2026-04-26 06:46 31.77005 -105.13960 34760 ft 538 kts 105°
2026-04-26 06:47 31.75572 -105.05323 34773 ft 539 kts 105°
2026-04-26 06:47 31.74133 -104.96694 34978 ft 542 kts 105°
2026-04-26 06:47 31.73406 -104.92346 35201 ft 541 kts 105°
2026-04-26 06:48 31.72681 -104.88009 35413 ft 541 kts 105°
2026-04-26 06:48 31.71954 -104.83676 35588 ft 541 kts 105°
2026-04-26 06:48 31.71226 -104.79346 35753 ft 541 kts 105°
2026-04-26 06:48 31.70496 -104.75014 35947 ft 540 kts 105°
2026-04-26 06:49 31.69765 -104.70689 36157 ft 539 kts 105°
2026-04-26 06:49 31.69033 -104.66365 36305 ft 539 kts 105°
2026-04-26 06:49 31.68301 -104.62050 36421 ft 539 kts 105°
2026-04-26 06:49 31.67564 -104.57723 36558 ft 539 kts 105°
2026-04-26 06:50 31.66829 -104.53409 36717 ft 538 kts 105°
2026-04-26 06:50 31.65352 -104.44778 36760 ft 541 kts 105°
2026-04-26 06:51 31.63866 -104.36119 36760 ft 540 kts 105°
2026-04-26 06:51 31.61644 -104.23241 36757 ft 538 kts 105°
2026-04-26 06:52 31.60154 -104.14653 36746 ft 537 kts 105°
2026-04-26 06:52 31.58660 -104.06079 36748 ft 536 kts 105°
2026-04-26 06:53 31.57160 -103.97508 36744 ft 536 kts 105°
2026-04-26 06:53 31.55656 -103.88950 36737 ft 536 kts 105°
2026-04-26 06:54 31.54145 -103.80387 36761 ft 536 kts 105°
2026-04-26 06:54 31.52628 -103.71826 36788 ft 537 kts 105°
2026-04-26 06:55 31.51115 -103.63316 36822 ft 537 kts 105°
2026-04-26 06:55 31.49580 -103.54723 36848 ft 538 kts 105°
2026-04-26 06:56 31.48040 -103.46134 36850 ft 539 kts 105°
2026-04-26 06:56 31.46491 -103.37531 36833 ft 540 kts 105°
2026-04-26 06:57 31.44935 -103.28922 36805 ft 541 kts 105°
2026-04-26 06:57 31.43369 -103.20293 36763 ft 542 kts 105°
2026-04-26 06:58 31.41805 -103.11713 36718 ft 542 kts 105°
2026-04-26 06:58 31.40223 -103.03065 36725 ft 542 kts 105°
2026-04-26 06:59 31.38635 -102.94419 36721 ft 543 kts 105°
2026-04-26 06:59 31.37051 -102.85827 36715 ft 543 kts 105°
2026-04-26 07:00 31.35452 -102.77190 36718 ft 543 kts 105°
2026-04-26 07:00 31.33848 -102.68564 36709 ft 542 kts 105°
2026-04-26 07:01 31.32240 -102.59944 36713 ft 542 kts 105°
2026-04-26 07:01 31.30627 -102.51337 36720 ft 541 kts 105°
2026-04-26 07:02 31.29011 -102.42744 36729 ft 541 kts 105°
2026-04-26 07:02 31.27388 -102.34150 36728 ft 540 kts 105°
2026-04-26 07:03 31.25773 -102.25627 36732 ft 540 kts 105°
2026-04-26 07:03 31.24142 -102.17055 36729 ft 539 kts 105°
2026-04-26 07:04 31.22510 -102.08510 36735 ft 538 kts 105°
2026-04-26 07:04 31.20879 -102.00002 36739 ft 536 kts 105°
2026-04-26 07:05 31.19244 -101.91503 36748 ft 535 kts 105°
2026-04-26 07:05 31.17604 -101.83016 36748 ft 535 kts 105°
2026-04-26 07:06 31.15974 -101.74607 36753 ft 534 kts 105°
2026-04-26 07:06 31.14330 -101.66158 36754 ft 533 kts 105°
2026-04-26 07:07 31.12682 -101.57722 36753 ft 532 kts 105°
2026-04-26 07:07 31.11029 -101.49292 36760 ft 531 kts 105°
2026-04-26 07:08 31.09388 -101.40952 36765 ft 531 kts 105°
2026-04-26 07:08 31.07731 -101.32562 36756 ft 530 kts 105°
2026-04-26 07:09 31.06070 -101.24180 36784 ft 530 kts 105°
2026-04-26 07:09 31.04404 -101.15806 36797 ft 530 kts 105°
2026-04-26 07:11 31.00220 -100.94904 36768 ft 529 kts 105°
2026-04-26 07:11 30.98550 -100.86612 36762 ft 529 kts 105°
2026-04-26 07:12 30.96866 -100.78280 36773 ft 528 kts 105°
2026-04-26 07:12 30.95177 -100.69950 36775 ft 528 kts 105°
2026-04-26 07:13 30.93480 -100.61616 36775 ft 528 kts 105°
2026-04-26 07:13 30.91778 -100.53283 36778 ft 528 kts 105°
2026-04-26 07:14 30.90075 -100.44974 36765 ft 528 kts 105°
2026-04-26 07:14 30.88376 -100.36714 36764 ft 528 kts 105°
2026-04-26 07:15 30.86662 -100.28407 36760 ft 527 kts 105°
2026-04-26 07:15 30.84943 -100.20111 36758 ft 527 kts 105°
2026-04-26 07:16 30.83219 -100.11812 36753 ft 527 kts 105°
2026-04-26 07:16 30.81491 -100.03527 36755 ft 527 kts 105°
2026-04-26 07:17 30.79765 -99.95275 36761 ft 527 kts 105°
2026-04-26 07:17 30.78025 -99.86991 36784 ft 527 kts 105°
2026-04-26 07:18 30.76281 -99.78710 36790 ft 527 kts 105°
2026-04-26 07:18 30.74530 -99.70429 36800 ft 527 kts 105°
2026-04-26 07:19 30.72775 -99.62152 36796 ft 527 kts 105°
2026-04-26 07:19 30.71012 -99.53870 36780 ft 527 kts 105°
2026-04-26 07:20 30.69248 -99.45605 36770 ft 528 kts 105°
2026-04-26 07:20 30.67475 -99.37329 36761 ft 528 kts 105°
2026-04-26 07:21 30.65694 -99.29045 36761 ft 528 kts 105°
2026-04-26 07:21 30.63919 -99.20816 36760 ft 528 kts 105°
2026-04-26 07:22 30.62129 -99.12540 36767 ft 528 kts 105°
2026-04-26 07:22 30.60332 -99.04263 36770 ft 529 kts 105°
2026-04-26 07:23 30.58530 -98.95989 36778 ft 529 kts 105°
2026-04-26 07:23 30.56721 -98.87712 36796 ft 528 kts 105°
2026-04-26 07:24 30.54907 -98.79439 36798 ft 528 kts 105°
2026-04-26 07:24 30.53101 -98.71229 36805 ft 528 kts 105°
2026-04-26 07:25 30.51281 -98.62981 36812 ft 528 kts 105°
2026-04-26 07:25 30.49456 -98.54740 36826 ft 527 kts 105°
2026-04-26 07:26 30.47627 -98.46507 36839 ft 527 kts 104°
2026-04-26 07:26 30.45791 -98.38271 36841 ft 527 kts 105°
2026-04-26 07:27 30.44127 -98.30000 36839 ft 527 kts 100°
2026-04-26 07:27 30.42875 -98.21698 36833 ft 526 kts 99°
2026-04-26 07:28 30.41674 -98.13330 36855 ft 526 kts 99°
2026-04-26 07:28 30.40424 -98.04970 36874 ft 526 kts 99°
2026-04-26 07:29 30.39137 -97.96627 36873 ft 526 kts 99°
2026-04-26 07:29 30.37836 -97.88289 36866 ft 526 kts 99°
2026-04-26 07:30 30.36750 -97.81349 36851 ft 527 kts 99°
2026-04-26 07:30 30.35228 -97.71639 36805 ft 527 kts 99°
2026-04-26 07:31 30.34126 -97.64635 36812 ft 527 kts 99°
2026-04-26 07:31 30.32816 -97.56340 36815 ft 527 kts 99°
2026-04-26 07:32 30.31491 -97.47990 36812 ft 527 kts 99°
2026-04-26 07:32 30.30160 -97.39636 36807 ft 527 kts 99°
2026-04-26 07:33 30.28822 -97.31274 36798 ft 528 kts 99°
2026-04-26 07:33 30.27478 -97.22913 36822 ft 528 kts 99°
2026-04-26 07:34 30.26139 -97.14615 36844 ft 528 kts 99°
2026-04-26 07:34 30.24785 -97.06258 36872 ft 527 kts 99°
2026-04-26 07:35 30.23429 -96.97926 36875 ft 527 kts 99°
2026-04-26 07:35 30.22068 -96.89594 36880 ft 527 kts 99°
2026-04-26 07:36 30.20715 -96.81351 36855 ft 526 kts 99°
2026-04-26 07:36 30.19354 -96.73086 36820 ft 526 kts 99°
2026-04-26 07:37 30.17980 -96.64782 36790 ft 526 kts 99°
2026-04-26 07:37 30.16601 -96.56481 36750 ft 526 kts 99°
2026-04-26 07:38 30.15219 -96.48191 36747 ft 525 kts 99°
2026-04-26 07:38 30.13829 -96.39895 36710 ft 525 kts 99°
2026-04-26 07:39 30.12438 -96.31619 36679 ft 524 kts 99°
2026-04-26 07:39 30.11043 -96.23357 36660 ft 524 kts 99°
2026-04-26 07:40 30.09643 -96.15098 36659 ft 524 kts 99°
2026-04-26 07:40 30.08239 -96.06845 36703 ft 523 kts 99°
2026-04-26 07:41 30.06839 -95.98649 36745 ft 523 kts 99°
2026-04-26 07:41 30.05424 -95.90401 36767 ft 523 kts 99°
2026-04-26 07:42 30.04006 -95.82162 36783 ft 523 kts 99°
2026-04-26 07:42 30.02582 -95.73927 36817 ft 523 kts 99°
2026-04-26 07:43 30.01163 -95.65751 36839 ft 523 kts 99°
2026-04-26 07:43 29.99730 -95.57527 36844 ft 523 kts 99°
2026-04-26 07:44 29.98368 -95.49747 36842 ft 523 kts 99°
2026-04-26 07:44 29.96923 -95.41520 36845 ft 523 kts 99°
2026-04-26 07:45 29.96313 -95.38056 36844 ft 523 kts 99°
2026-04-26 07:45 29.94984 -95.29820 36847 ft 522 kts 96°
2026-04-26 07:46 29.93944 -95.21535 36842 ft 522 kts 95°
2026-04-26 07:46 29.92932 -95.13250 36844 ft 522 kts 95°
2026-04-26 07:47 29.91870 -95.04965 36849 ft 522 kts 96°
2026-04-26 07:47 29.90780 -94.96684 36856 ft 523 kts 96°
2026-04-26 07:48 29.89682 -94.88396 36859 ft 523 kts 96°
2026-04-26 07:48 29.88582 -94.80116 36859 ft 523 kts 96°
2026-04-26 07:49 29.87484 -94.71881 36858 ft 523 kts 96°
2026-04-26 07:49 29.86381 -94.63654 36857 ft 523 kts 96°
2026-04-26 07:50 29.84704 -94.51232 36858 ft 523 kts 96°
2026-04-26 07:50 29.83583 -94.42954 36858 ft 523 kts 96°
2026-04-26 07:51 29.82463 -94.34672 36852 ft 523 kts 95°
2026-04-26 07:51 29.81338 -94.26396 36854 ft 522 kts 95°
2026-04-26 07:52 29.80207 -94.18133 36853 ft 522 kts 95°
2026-04-26 07:52 29.79077 -94.09929 36856 ft 522 kts 95°
2026-04-26 07:53 29.77936 -94.01686 36854 ft 521 kts 95°
2026-04-26 07:53 29.76790 -93.93440 36852 ft 521 kts 95°
2026-04-26 07:54 29.75641 -93.85210 36854 ft 520 kts 95°
2026-04-26 07:54 29.74496 -93.77049 36857 ft 519 kts 95°
2026-04-26 07:55 29.73340 -93.68851 36858 ft 519 kts 95°
2026-04-26 07:55 29.72181 -93.60664 36856 ft 518 kts 95°
2026-04-26 07:56 29.71017 -93.52479 36862 ft 518 kts 95°
2026-04-26 07:56 29.69849 -93.44308 36863 ft 517 kts 95°
2026-04-26 07:57 29.68676 -93.36139 36865 ft 517 kts 95°
2026-04-26 07:57 29.67507 -93.28030 36865 ft 517 kts 95°
2026-04-26 07:58 29.66326 -93.19876 36863 ft 517 kts 95°
2026-04-26 07:58 29.65449 -93.13851 36864 ft 517 kts 95°
2026-04-26 07:59 29.64237 -93.05555 36863 ft 516 kts 95°
2026-04-26 07:59 29.63041 -92.97410 36870 ft 516 kts 95°
2026-04-26 08:00 29.61849 -92.89311 36871 ft 516 kts 95°
2026-04-26 08:00 29.60644 -92.81156 36873 ft 516 kts 95°
2026-04-26 08:01 29.59435 -92.73018 36870 ft 517 kts 95°
2026-04-26 08:01 29.58219 -92.64882 36877 ft 517 kts 95°
2026-04-26 08:02 29.56996 -92.56737 36882 ft 517 kts 96°
2026-04-26 08:02 29.55768 -92.48594 36880 ft 518 kts 96°
2026-04-26 08:03 29.54534 -92.40448 36881 ft 518 kts 96°
2026-04-26 08:03 29.53294 -92.32294 36883 ft 518 kts 96°
2026-04-26 08:04 29.52057 -92.24195 36884 ft 519 kts 96°
2026-04-26 08:04 29.50805 -92.16033 36884 ft 519 kts 96°
2026-04-26 08:05 29.49547 -92.07871 36886 ft 519 kts 96°
2026-04-26 08:05 29.48284 -91.99706 36887 ft 519 kts 96°
2026-04-26 08:06 29.47016 -91.91541 36886 ft 520 kts 96°
2026-04-26 08:06 29.45743 -91.83383 36890 ft 520 kts 96°
2026-04-26 08:07 29.44464 -91.75220 36893 ft 520 kts 96°
2026-04-26 08:07 29.43180 -91.67055 36893 ft 520 kts 96°
2026-04-26 08:08 29.41892 -91.58900 36897 ft 520 kts 96°
2026-04-26 08:08 29.40598 -91.50743 36892 ft 519 kts 96°
2026-04-26 08:09 29.39319 -91.42724 36885 ft 510 kts 96°
2026-04-26 08:09 29.38046 -91.34765 36887 ft 506 kts 96°
2026-04-26 08:10 29.36774 -91.26838 36894 ft 503 kts 96°
2026-04-26 08:10 29.35504 -91.18947 36898 ft 502 kts 96°
2026-04-26 08:11 29.34241 -91.11134 36899 ft 502 kts 97°
2026-04-26 08:11 29.32962 -91.03258 36901 ft 502 kts 97°
2026-04-26 08:12 29.31678 -90.95377 36905 ft 504 kts 97°
2026-04-26 08:12 29.30384 -90.87469 36908 ft 505 kts 97°
2026-04-26 08:13 29.29080 -90.79533 36910 ft 507 kts 97°
2026-04-26 08:13 29.27777 -90.71632 36907 ft 508 kts 97°
2026-04-26 08:14 29.26468 -90.63729 36904 ft 509 kts 97°
2026-04-26 08:14 29.25214 -90.56186 36907 ft 509 kts 97°
2026-04-26 08:15 29.23885 -90.48224 36903 ft 509 kts 97°
2026-04-26 08:15 29.22554 -90.40271 36908 ft 508 kts 97°
2026-04-26 08:16 29.21218 -90.32331 36907 ft 507 kts 97°
2026-04-26 08:16 29.19881 -90.24407 36909 ft 506 kts 97°
2026-04-26 08:17 29.18551 -90.16563 36907 ft 505 kts 97°
2026-04-26 08:17 29.17072 -90.08708 36896 ft 507 kts 105°
2026-04-26 08:18 29.14756 -90.01095 36913 ft 506 kts 108°
2026-04-26 08:18 29.12729 -89.94809 36909 ft 506 kts 108°
2026-04-26 08:19 29.10310 -89.87246 36909 ft 506 kts 108°
2026-04-26 08:19 29.07925 -89.79675 36912 ft 506 kts 108°
2026-04-26 08:20 29.05549 -89.72087 36913 ft 507 kts 107°
2026-04-26 08:20 29.03167 -89.64494 36918 ft 508 kts 108°
2026-04-26 08:21 29.00791 -89.56942 36918 ft 508 kts 108°
2026-04-26 08:21 28.98390 -89.49333 36916 ft 509 kts 108°
2026-04-26 08:22 28.95979 -89.41713 36918 ft 510 kts 108°
2026-04-26 08:22 28.93562 -89.34089 36922 ft 511 kts 108°
2026-04-26 08:23 28.91136 -89.26454 36920 ft 512 kts 108°
2026-04-26 08:23 28.88703 -89.18816 36920 ft 512 kts 108°
2026-04-26 08:24 28.86268 -89.11187 36920 ft 512 kts 108°
2026-04-26 08:24 28.83824 -89.03548 36923 ft 512 kts 108°
2026-04-26 08:25 28.81395 -88.95971 36924 ft 511 kts 108°
2026-04-26 08:25 28.78949 -88.88360 36922 ft 511 kts 108°
2026-04-26 08:26 28.76502 -88.80759 36923 ft 510 kts 108°
2026-04-26 08:26 28.74054 -88.73175 36926 ft 509 kts 108°
2026-04-26 08:27 28.71606 -88.65605 36928 ft 509 kts 108°
2026-04-26 08:27 28.69153 -88.58039 36927 ft 508 kts 108°
2026-04-26 08:28 28.66703 -88.50495 36928 ft 508 kts 108°
2026-04-26 08:28 28.64250 -88.42962 36929 ft 507 kts 108°
2026-04-26 08:29 28.61808 -88.35475 36929 ft 507 kts 108°
2026-04-26 08:29 28.59349 -88.27956 36928 ft 507 kts 108°
2026-04-26 08:30 28.56885 -88.20435 36935 ft 507 kts 108°
2026-04-26 08:30 28.54415 -88.12913 36931 ft 507 kts 108°
2026-04-26 08:31 28.51943 -88.05402 36932 ft 507 kts 108°
2026-04-26 08:31 28.49466 -87.97891 36932 ft 507 kts 108°
2026-04-26 08:32 28.47006 -87.90448 36931 ft 506 kts 108°
2026-04-26 08:32 28.44521 -87.82945 36931 ft 506 kts 108°
2026-04-26 08:33 28.42036 -87.75458 36932 ft 506 kts 108°
2026-04-26 08:33 28.39547 -87.67974 36932 ft 506 kts 108°
2026-04-26 08:34 28.37053 -87.60492 36934 ft 506 kts 108°
2026-04-26 08:34 28.34558 -87.53019 36927 ft 506 kts 108°
2026-04-26 08:35 28.32060 -87.45557 36930 ft 505 kts 108°
2026-04-26 08:35 28.29577 -87.38153 36936 ft 505 kts 108°
2026-04-26 08:36 28.27075 -87.30709 36930 ft 505 kts 108°
2026-04-26 08:36 28.24572 -87.23279 36932 ft 504 kts 108°
2026-04-26 08:37 28.22066 -87.15854 36937 ft 503 kts 108°
2026-04-26 08:37 28.19558 -87.08439 36921 ft 503 kts 108°
2026-04-26 08:38 28.17050 -87.01037 36929 ft 503 kts 108°
2026-04-26 08:38 28.14553 -86.93685 36940 ft 502 kts 108°
2026-04-26 08:39 28.12042 -86.86304 36932 ft 502 kts 109°
2026-04-26 08:39 28.09527 -86.78928 36930 ft 502 kts 109°
2026-04-26 08:40 28.07004 -86.71545 36927 ft 502 kts 109°
2026-04-26 08:40 28.04481 -86.64174 36932 ft 502 kts 109°
2026-04-26 08:41 28.01968 -86.56849 36931 ft 502 kts 109°
2026-04-26 08:41 27.99436 -86.49484 36926 ft 502 kts 109°
2026-04-26 08:42 27.96896 -86.42110 36927 ft 502 kts 109°
2026-04-26 08:42 27.94353 -86.34743 36927 ft 502 kts 109°
2026-04-26 08:43 27.91824 -86.27433 36929 ft 502 kts 109°
2026-04-26 08:43 27.89278 -86.20083 36927 ft 501 kts 109°
2026-04-26 08:44 27.86731 -86.12745 36927 ft 501 kts 109°
2026-04-26 08:44 27.84181 -86.05418 36928 ft 501 kts 109°
2026-04-26 08:45 27.81630 -85.98101 36930 ft 500 kts 109°
2026-04-26 08:45 27.79076 -85.90790 36931 ft 500 kts 109°
2026-04-26 08:46 27.76523 -85.83495 36925 ft 499 kts 109°
2026-04-26 08:46 27.73980 -85.76246 36925 ft 499 kts 109°
2026-04-26 08:47 27.71423 -85.68968 36927 ft 499 kts 109°
2026-04-26 08:47 27.68861 -85.61694 36924 ft 498 kts 109°
2026-04-26 08:48 27.66298 -85.54429 36928 ft 498 kts 109°
2026-04-26 08:48 27.63740 -85.47195 36927 ft 498 kts 109°
2026-04-26 08:49 27.61187 -85.39990 36928 ft 498 kts 109°
2026-04-26 08:49 27.58909 -85.33104 36917 ft 496 kts 101°
2026-04-26 08:50 27.57594 -85.25517 36924 ft 493 kts 96°
2026-04-26 08:50 27.56363 -85.17908 36929 ft 493 kts 97°
2026-04-26 08:51 27.54368 -85.06513 36929 ft 493 kts 97°
2026-04-26 08:52 27.53047 -84.98969 36927 ft 493 kts 97°
2026-04-26 08:52 27.51713 -84.91377 36927 ft 493 kts 97°
2026-04-26 08:53 27.50376 -84.83797 36926 ft 493 kts 97°
2026-04-26 08:53 27.49035 -84.76217 36929 ft 492 kts 97°
2026-04-26 08:54 27.47690 -84.68699 36925 ft 492 kts 98°
2026-04-26 08:54 27.46330 -84.61153 36926 ft 491 kts 98°
2026-04-26 08:55 27.44968 -84.53620 36924 ft 490 kts 98°
2026-04-26 08:55 27.43603 -84.46095 36918 ft 490 kts 98°
2026-04-26 08:56 27.42254 -84.38670 36929 ft 489 kts 98°
2026-04-26 08:56 27.40896 -84.31180 36921 ft 488 kts 97°
2026-04-26 08:57 27.39539 -84.23692 36928 ft 487 kts 97°
2026-04-26 08:57 27.38181 -84.16228 36930 ft 487 kts 97°
2026-04-26 08:58 27.36816 -84.08764 36928 ft 486 kts 98°
2026-04-26 08:58 27.35447 -84.01308 36928 ft 485 kts 97°
2026-04-26 08:59 27.34088 -83.93926 36928 ft 485 kts 98°
2026-04-26 08:59 27.32715 -83.86493 36930 ft 485 kts 98°
2026-04-26 09:00 27.31340 -83.79070 36927 ft 484 kts 98°
2026-04-26 09:00 27.29963 -83.71661 36929 ft 484 kts 98°
2026-04-26 09:01 27.28582 -83.64253 36925 ft 484 kts 98°
2026-04-26 09:01 27.27196 -83.56840 36929 ft 484 kts 98°
2026-04-26 09:02 27.25805 -83.49430 36935 ft 485 kts 98°
2026-04-26 09:02 27.24409 -83.42010 36933 ft 485 kts 98°
2026-04-26 09:03 27.23084 -83.34989 36932 ft 486 kts 98°
2026-04-26 09:03 27.21676 -83.27554 36934 ft 487 kts 98°
2026-04-26 09:04 27.20271 -83.20158 36934 ft 487 kts 98°
2026-04-26 09:04 27.18850 -83.12705 36932 ft 488 kts 98°
2026-04-26 09:05 27.17431 -83.05251 36931 ft 489 kts 98°
2026-04-26 09:05 27.16022 -82.97769 36931 ft 489 kts 98°
2026-04-26 09:06 27.14607 -82.90291 36933 ft 490 kts 98°
2026-04-26 09:06 27.13317 -82.84094 36910 ft 493 kts 108°
2026-04-26 09:06 27.11200 -82.79584 36969 ft 494 kts 121°
2026-04-26 09:07 27.09982 -82.77412 36932 ft 495 kts 121°
2026-04-26 09:07 27.06259 -82.70911 36933 ft 495 kts 121°
2026-04-26 09:07 27.04415 -82.67639 36728 ft 498 kts 121°
2026-04-26 09:08 27.02583 -82.64345 36380 ft 495 kts 121°
2026-04-26 09:08 27.00785 -82.61081 35994 ft 490 kts 121°
2026-04-26 09:08 26.99006 -82.57844 35609 ft 486 kts 121°
2026-04-26 09:08 26.97237 -82.54625 35217 ft 482 kts 121°
2026-04-26 09:09 26.95481 -82.51438 34826 ft 479 kts 121°
2026-04-26 09:09 26.93732 -82.48269 34440 ft 476 kts 121°
2026-04-26 09:09 26.91978 -82.45127 34053 ft 474 kts 124°
2026-04-26 09:09 26.89825 -82.42363 33535 ft 470 kts 140°
2026-04-26 09:10 26.87355 -82.39979 33098 ft 467 kts 142°
2026-04-26 09:10 26.84855 -82.37659 32613 ft 466 kts 142°
2026-04-26 09:10 26.82390 -82.35383 32157 ft 464 kts 142°
2026-04-26 09:10 26.79915 -82.33074 31707 ft 463 kts 142°
2026-04-26 09:11 26.77457 -82.30755 31265 ft 461 kts 141°
2026-04-26 09:11 26.75016 -82.28432 30821 ft 460 kts 141°
2026-04-26 09:11 26.72587 -82.26109 30372 ft 459 kts 141°
2026-04-26 09:11 26.70164 -82.23787 29926 ft 462 kts 141°
2026-04-26 09:12 26.67674 -82.21406 29435 ft 481 kts 141°
2026-04-26 09:12 26.65092 -82.18940 28908 ft 491 kts 141°
2026-04-26 09:12 26.62505 -82.16468 28397 ft 487 kts 141°
2026-04-26 09:12 26.59948 -82.14026 27907 ft 480 kts 141°
2026-04-26 09:13 26.57424 -82.11617 27440 ft 475 kts 141°
2026-04-26 09:13 26.54919 -82.09230 26979 ft 471 kts 141°
2026-04-26 09:13 26.52440 -82.06865 26524 ft 467 kts 140°
2026-04-26 09:13 26.50011 -82.04471 26073 ft 463 kts 139°
2026-04-26 09:14 26.47666 -82.02100 25636 ft 459 kts 139°
2026-04-26 09:14 26.45319 -81.99709 25198 ft 455 kts 139°
2026-04-26 09:14 26.42984 -81.97333 24759 ft 452 kts 139°
2026-04-26 09:14 26.40665 -81.94983 24312 ft 449 kts 139°
2026-04-26 09:15 26.38354 -81.92653 23872 ft 447 kts 139°
2026-04-26 09:15 26.36050 -81.90336 23422 ft 444 kts 139°
2026-04-26 09:15 26.33757 -81.88034 22919 ft 441 kts 139°
2026-04-26 09:15 26.31486 -81.85756 22468 ft 437 kts 139°
2026-04-26 09:16 26.29234 -81.83497 22034 ft 433 kts 139°
2026-04-26 09:16 26.27003 -81.81260 21609 ft 429 kts 139°
2026-04-26 09:16 26.24799 -81.79039 21191 ft 425 kts 136°
2026-04-26 09:16 26.22959 -81.76491 20759 ft 420 kts 117°
2026-04-26 09:17 26.21669 -81.73605 20352 ft 415 kts 114°
2026-04-26 09:17 26.20450 -81.70704 19709 ft 419 kts 113°
2026-04-26 09:17 26.19228 -81.67778 19245 ft 416 kts 113°
2026-04-26 09:17 26.18001 -81.64875 18844 ft 412 kts 114°
2026-04-26 09:18 26.16774 -81.62009 18445 ft 407 kts 114°
2026-04-26 09:18 26.15550 -81.59180 18030 ft 403 kts 114°
2026-04-26 09:18 26.14334 -81.56383 17622 ft 399 kts 114°
2026-04-26 09:18 26.13131 -81.53626 17231 ft 394 kts 114°
2026-04-26 09:19 26.11940 -81.50899 16848 ft 389 kts 114°
2026-04-26 09:19 26.10764 -81.48205 16477 ft 385 kts 114°
2026-04-26 09:19 26.09601 -81.45542 16125 ft 381 kts 114°
2026-04-26 09:19 26.08448 -81.42905 15785 ft 377 kts 114°
2026-04-26 09:20 26.07321 -81.40326 15442 ft 374 kts 114°
2026-04-26 09:20 26.06185 -81.37724 15116 ft 373 kts 114°
2026-04-26 09:20 26.05053 -81.35125 14785 ft 373 kts 114°
2026-04-26 09:20 26.03927 -81.32538 14436 ft 372 kts 114°
2026-04-26 09:21 26.02798 -81.29947 14071 ft 371 kts 115°
2026-04-26 09:21 26.01670 -81.27361 13702 ft 371 kts 115°
2026-04-26 09:21 26.00543 -81.24777 13303 ft 371 kts 115°
2026-04-26 09:21 25.99417 -81.22200 12922 ft 370 kts 115°
2026-04-26 09:22 25.98297 -81.19637 12551 ft 366 kts 115°
2026-04-26 09:22 25.97191 -81.17106 12187 ft 361 kts 115°
2026-04-26 09:22 25.96100 -81.14613 11834 ft 357 kts 115°
2026-04-26 09:22 25.95022 -81.12149 11484 ft 352 kts 115°
2026-04-26 09:23 25.93955 -81.09713 11144 ft 348 kts 115°
2026-04-26 09:23 25.92914 -81.07337 10813 ft 344 kts 116°
2026-04-26 09:23 25.91872 -81.04960 10475 ft 340 kts 116°
2026-04-26 09:23 25.90857 -81.02603 10150 ft 337 kts 114°
2026-04-26 09:24 25.89948 -81.00248 9983 ft 328 kts 112°
2026-04-26 09:24 25.89077 -80.97919 9636 ft 325 kts 112°
2026-04-26 09:24 25.88212 -80.95613 9298 ft 322 kts 112°
2026-04-26 09:24 25.87343 -80.93329 8972 ft 318 kts 113°
2026-04-26 09:25 25.86481 -80.91079 8682 ft 314 kts 113°
2026-04-26 09:25 25.85629 -80.88863 8411 ft 310 kts 113°
2026-04-26 09:25 25.84789 -80.86678 8141 ft 306 kts 113°
2026-04-26 09:25 25.83959 -80.84519 7850 ft 302 kts 113°
2026-04-26 09:26 25.83135 -80.82380 7551 ft 300 kts 113°
2026-04-26 09:26 25.82320 -80.80260 7247 ft 298 kts 113°
2026-04-26 09:26 25.81510 -80.78154 6955 ft 295 kts 113°
2026-04-26 09:26 25.80715 -80.76088 6659 ft 293 kts 113°
2026-04-26 09:27 25.79915 -80.74013 6361 ft 291 kts 113°
2026-04-26 09:27 25.79121 -80.71954 6058 ft 289 kts 113°
2026-04-26 09:27 25.78331 -80.69907 5756 ft 287 kts 113°
2026-04-26 09:27 25.77550 -80.67883 5459 ft 284 kts 112°
2026-04-26 09:28 25.77091 -80.65774 5151 ft 283 kts 90°
2026-04-26 09:28 25.77198 -80.63608 4890 ft 280 kts 85°
2026-04-26 09:28 25.77347 -80.61469 4590 ft 274 kts 86°
2026-04-26 09:28 25.77457 -80.59394 4295 ft 265 kts 87°
2026-04-26 09:29 25.77544 -80.57362 4042 ft 263 kts 88°
2026-04-26 09:29 25.77626 -80.55342 3810 ft 260 kts 88°
2026-04-26 09:29 25.77718 -80.53372 3708 ft 248 kts 87°
2026-04-26 09:29 25.77806 -80.51502 3509 ft 238 kts 88°
2026-04-26 09:30 25.77880 -80.49679 3214 ft 234 kts 88°
2026-04-26 09:30 25.77950 -80.47923 2932 ft 228 kts 88°
2026-04-26 09:30 25.78018 -80.46202 2630 ft 216 kts 89°
2026-04-26 09:30 25.78082 -80.44587 2352 ft 203 kts 89°
2026-04-26 09:31 25.78143 -80.43076 2109 ft 189 kts 89°
2026-04-26 09:31 25.78197 -80.41671 1875 ft 174 kts 89°
2026-04-26 09:31 25.78249 -80.40386 1651 ft 160 kts 89°
2026-04-26 09:31 25.78297 -80.39210 1430 ft 145 kts 90°
2026-04-26 09:32 25.78340 -80.38137 1280 ft 138 kts 89°
2026-04-26 09:32 25.78383 -80.37061 1088 ft 142 kts 89°
2026-04-26 09:32 25.78433 -80.35975 945 ft 141 kts 89°
2026-04-26 09:32 25.78474 -80.34885 734 ft 142 kts 89°
2026-04-26 09:33 25.78519 -80.33792 527 ft 143 kts 88°
2026-04-26 09:33 25.78563 -80.32699 327 ft 141 kts 89°
2026-04-26 09:33 25.78606 -80.31618 153 ft 138 kts 88°
2026-04-26 09:33 25.78655 -80.30572 19 ft 131 kts 89°
2026-04-26 09:34 25.78683 -80.29799 17 ft 69 kts 87°
2026-04-26 09:34 25.78702 -80.29320 17 ft 58 kts 87°
2026-04-26 09:34 25.78722 -80.28900 16 ft 48 kts 87°
2026-04-26 09:34 25.78779 -80.28718 16 ft 21 kts 49°
2026-04-26 09:35 25.78879 -80.28622 17 ft 15 kts 39°
2026-04-26 09:35 25.78961 -80.28555 16 ft 14 kts 34°
2026-04-26 09:35 25.79043 -80.28495 16 ft 14 kts 31°
2026-04-26 09:35 25.79121 -80.28439 16 ft 13 kts 34°
2026-04-26 09:36 25.79202 -80.28397 19 ft 13 kts 15°
2026-04-26 09:36 25.79271 -80.28339 19 ft 12 kts 41°
2026-04-26 09:36 25.79334 -80.28275 18 ft 12 kts 45°
2026-04-26 09:36 25.79364 -80.28192 19 ft 12 kts 91°
2026-04-26 09:37 25.79389 -80.28109 20 ft 11 kts 66°
2026-04-26 09:37 25.79438 -80.28064 19 ft 10 kts 13°
2026-04-26 09:37 25.79466 -80.28058 19 ft 0 kts 11°